Location: Dehesa de la Cepeda
(40.6574°N, 4.3013°W)
Time: 10:23:12
(UTC+00:00)

Transit 2A Rocket - Pass Details

Date: 11 August 2021
Orbit: 586 x 917 km, 66.7° (Epoch: 24 September)

Event Time Altitude Azimuth Distance (km) Brightness Sun altitude
Rises 11:47:44 0° 210° (SSW) 2,837 8.2 63.4°
Reaches altitude 10° 11:49:54 10° 211° (SSW) 1,965 7.5 63.5°
Maximum altitude 11:54:19 83° 300° (WNW) 655 5.9 63.7°
Drops below altitude 10° 11:59:08 10° 28° (NNE) 2,144 7.2 64.0°
Sets 12:01:35 0° 29° (NNE) 3,120 8.0 64.1°
